Wind_Speed
5 5 12 16 17 9 7 11 11 8 17 11 18 15 12 10 8 15 12 10 6 7 8 6 12 19 14 30 29 35 36 34 33 28 26 19 20 20 14 21 19 12 8 7
4 11 8 9 12 16 16 15 13 17 13 10 16 18 13 9 7 4 17 13 11 8 4 15 10 14 25 15 30 32 33 34 30 24 24 25 22 22 24 22 18 11 10 10
6 6 14 17 15 18 15 14 15 12 15 16 13 15 10 7 8 21 15 14 14 18 12 5 13 8 10 49 34 33 39 33 28 29 25 18 27 29 25 20 19 15 14 14
8 15 16 16 18 14 14 18 18 15 12 9 15 11 13 11 8 20 14 11 13 18 17 13 6 14 6 25 43 29 37 36 29 26 27 30 27 23 26 25 22 20 18 17
6 7 10 17 13 14 16 15 15 14 3 5 8 6 13 16 15 6 14 11 9 10 17 16 12 19 29 7 31 33 36 34 25 25 23 23 27 34 28 24 23 21 18 16
14 8 6 8 11 13 10 12 5 4 0 2 9 9 14 9 21 6 11 13 11 9 8 9 18 7 15 24 23 15 20 24 19 21 21 26 35 34 31 27 24 21 18 14
11 13 7 9 7 11 13 5 4 2 1 4 8 4 11 18 21 12 15 17 15 12 10 14 14 9 12 25 19 15 20 20 20 18 23 28 32 27 29 28 24 21 16 12
7 4 12 15 12 5 9 7 5 6 4 7 8 6 10 20 21 18 19 21 18 14 14 15 16 19 28 32 29 25 20 16 15 21 27 32 25 26 24 19 21 22 17 13
3 6 12 8 8 7 6 5 11 4 4 0 4 8 11 20 19 11 20 20 22 19 17 18 14 16 23 25 29 26 22 23 29 27 31 29 27 24 29 29 30 21 16 11
5 2 4 6 7 10 6 14 12 6 8 5 10 7 14 9 17 11 12 10 17 19 17 12 14 23 26 30 27 29 31 32 31 29 24 24 28 25 24 23 21 17 12 6
6 4 4 7 6 8 3 3 3 2 2 2 1 7 7 16 10 12 19 16 20 11 13 11 11 21 28 28 29 38 38 34 32 26 28 27 24 23 21 18 14 12 7 4
2 2 5 7 7 7 6 7 6 3 1 2 5 5 9 4 10 10 11 16 15 8 5 5 9 23 18 29 33 35 34 35 31 31 29 27 25 22 19 16 12 8 6 4
3 3 2 2 6 5 3 5 5 8 2 2 2 5 6 6 5 8 11 10 16 9 7 12 19 18 23 29 30 30 31 33 33 32 31 26 23 19 16 12 8 6 5 7
3 4 5 7 5 4 6 12 7 6 4 2 3 11 3 4 2 11 23 23 21 19 14 9 9 14 24 26 26 26 28 31 33 34 31 26 20 15 11 9 7 6 6 6
4 3 5 6 13 15 16 10 7 6 10 3 5 9 5 8 12 18 20 23 25 24 24 20 17 15 26 29 33 29 24 31 32 30 26 22 17 13 10 9 7 6 7 11
5 4 6 4 19 19 14 12 10 13 16 17 5 8 3 18 23 21 18 22 21 22 22 20 18 17 22 25 27 34 38 32 30 28 27 22 18 13 11 9 8 8 11 10
4 3 5 6 7 5 7 8 7 8 22 20 3 4 6 16 22 18 15 20 21 19 18 19 17 18 20 22 24 26 26 32 28 28 25 21 17 15 13 10 11 11 10 9
1 3 3 4 8 5 3 5 8 6 19 19 18 16 16 17 18 20 15 13 16 16 17 16 18 20 23 25 26 30 32 31 28 26 24 18 15 14 12 11 11 11 12 11
8 5 1 3 4 3 3 7 7 3 8 17 23 21 18 23 21 15 11 12 12 15 16 21 25 24 25 24 23 26 27 25 25 24 20 16 14 13 12 12 12 11 11 11
12 10 6 5 4 2 5 8 10 3 7 4 14 14 21 15 5 6 13 12 10 15 17 22 28 28 23 21 23 26 22 20 21 18 17 14 12 12 12 11 11 11 11 13
6 6 10 7 2 9 9 4 5 5 9 10 8 11 12 4 6 18 15 12 17 17 19 20 21 24 22 20 21 21 18 20 16 17 16 14 12 12 13 12 12 14 14 13
4 7 5 5 4 5 6 2 5 4 9 15 14 15 12 18 19 18 15 14 15 18 18 19 20 23 25 19 19 17 18 15 15 17 17 14 15 15 13 12 14 18 17 17
3 2 4 3 6 10 4 7 7 18 19 9 17 17 22 21 18 17 15 15 17 19 18 20 22 24 25 22 19 17 15 15 16 17 17 16 16 16 15 17 18 18 22 20
4 5 4 4 6 7 8 11 7 6 13 14 21 23 21 22 18 17 14 13 13 15 20 24 23 23 21 20 19 18 15 15 17 17 18 17 17 17 18 18 15 14 17 17
3 6 6 4 5 4 9 4 22 13 18 22 20 21 21 22 18 15 14 13 19 21 23 24 23 21 21 20 18 15 15 15 16 15 15 16 15 15 16 17 13 13 13 14
3 2 3 2 5 3 10 19 23 22 21 21 24 20 16 16 17 14 13 20 24 24 25 25 23 23 21 18 16 15 15 15 14 14 15 15 14 15 17 17 16 16 15 8
Wind_Direction
214 197 209 220 222 246 255 254 231 253 240 195 231 246 231 223 233 252 165 148 93 105 128 17 267 270 258 168 162 161 163 168 167 173 174 164 172 170 164 137 144 143 126 103
289 233 231 231 226 237 245 244 244 245 244 203 221 248 241 207 228 195 134 143 134 106 112 116 108 277 349 325 173 168 165 159 165 167 180 184 176 139 126 123 123 120 113 104
226 239 229 232 220 226 239 245 248 226 241 229 213 249 230 235 214 100 107 122 116 124 119 130 111 102 258 309 197 169 162 166 168 180 193 185 145 134 127 122 114 110 107 101
234 251 217 234 221 213 229 237 244 262 221 219 204 236 232 236 255 125 145 144 152 149 140 145 123 105 55 280 309 182 163 166 172 171 156 146 141 129 131 122 116 106 105 105
226 240 254 227 223 222 238 245 240 255 249 259 225 221 221 234 239 156 138 160 154 155 145 149 157 154 139 124 294 202 179 159 168 162 151 148 131 135 130 127 123 120 116 107
273 264 219 253 236 239 267 246 303 265 160 307 253 213 236 233 236 140 135 158 167 159 144 141 160 200 236 194 227 204 151 161 157 150 160 147 139 135 134 135 135 131 120 105
248 243 243 225 244 260 251 69 17 305 139 203 307 2 241 223 253 162 161 164 161 160 166 156 159 168 225 161 197 186 163 157 169 157 154 153 146 142 146 142 143 136 127 123
220 178 190 208 227 230 214 132 136 184 170 229 242 203 243 239 246 161 170 164 156 171 169 177 166 162 193 162 171 165 165 153 157 149 148 146 137 141 142 157 158 145 140 127
290 200 173 193 193 187 185 144 180 250 96 166 191 245 297 282 256 203 169 165 166 179 182 181 188 178 154 152 163 159 158 142 138 131 134 136 139 135 118 114 126 127 119 109
296 327 198 214 183 244 224 195 193 213 174 177 208 215 220 217 223 185 151 173 180 185 197 178 179 161 160 162 155 144 140 134 134 128 122 129 126 122 118 115 112 107 103 88
243 242 204 179 197 239 274 183 80 217 184 70 182 228 240 229 185 162 151 182 180 151 193 164 146 149 163 150 134 132 134 133 127 117 118 117 112 109 106 102 95 88 86 61
286 305 167 217 194 228 250 292 121 130 2 234 164 279 284 293 163 134 133 123 135 110 96 323 168 162 157 132 131 130 131 128 125 124 118 113 110 105 99 93 89 79 60 25
324 293 135 257 298 303 275 268 139 112 80 30 61 274 325 130 161 125 139 132 128 127 141 236 177 167 135 121 121 121 124 123 123 119 114 106 99 94 86 85 79 57 15 354
100 246 168 194 216 214 252 256 167 109 84 45 257 295 90 174 202 78 70 78 76 80 82 69 99 92 99 104 115 120 120 121 115 110 104 97 91 91 92 78 59 31 6 352
162 275 351 212 193 214 237 232 208 128 120 64 292 298 296 357 81 90 87 83 73 68 65 63 69 75 85 84 84 83 96 103 112 108 101 99 96 92 81 66 47 24 357 349
21 312 0 289 203 218 221 226 241 162 147 203 292 264 38 68 67 69 83 80 77 79 77 71 68 65 70 81 87 98 106 110 111 110 104 95 89 79 62 47 37 20 6 8
358 91 19 293 319 304 211 208 237 165 171 148 96 250 87 68 72 59 62 88 94 92 85 80 78 69 63 71 87 94 91 100 94 88 86 78 72 65 53 47 37 37 30 20
203 73 28 282 331 282 243 200 208 198 139 138 106 89 86 83 76 73 43 68 76 78 80 73 64 63 73 83 83 86 89 87 80 73 72 67 66 59 47 46 40 14 10 15
147 114 72 343 306 271 337 50 51 46 74 116 121 109 108 101 85 79 85 70 81 82 76 73 66 65 76 81 81 87 82 81 75 68 66 65 67 62 64 45 25 23 14 12
78 92 96 345 292 243 244 4 24 154 100 169 123 137 145 150 120 130 126 113 80 73 83 91 84 72 64 70 77 73 69 71 70 71 77 69 65 68 54 37 26 13 16 14
115 133 185 194 82 292 265 330 323 92 183 180 167 148 140 102 124 133 122 109 101 100 93 88 80 81 86 77 80 68 65 59 69 78 74 61 64 57 45 38 33 18 28 29
192 160 190 169 124 278 222 68 94 188 148 158 170 159 121 114 116 122 128 127 128 124 120 108 97 78 91 88 88 69 62 69 75 75 72 62 51 50 37 36 38 44 39 25
254 56 287 144 179 198 266 80 308 176 154 160 129 127 125 125 127 134 135 140 138 142 134 115 99 89 82 87 91 83 65 76 74 70 63 59 55 43 45 47 44 44 30 27
285 335 355 334 318 179 146 149 193 205 139 140 132 128 132 129 138 141 141 137 139 147 130 113 104 96 91 87 83 76 73 77 69 66 57 56 51 42 46 43 42 42 34 37
231 325 316 310 69 307 272 100 151 147 124 118 120 128 132 136 143 137 124 120 119 115 111 110 108 105 100 89 80 73 67 72 68 63 60 57 52 43 35 36 46 42 33 42
163 352 328 268 46 301 271 133 127 125 129 128 128 131 125 121 118 112 106 104 102 102 103 100 102 98 91 85 78 70 67 69 75 71 64 56 52 45 43 42 43 44 35 46
Height
723 734 734 728 723 729 726 732 731 719 706 716 718 716 704 698 700 698 720 722 730 735 737 742 752 768 754 746 752 755 754 757 757 764 773 778 780 785 788 786 793 794 794 795
733 731 723 719 721 727 726 730 729 715 705 716 716 714 704 699 700 700 722 727 729 734 740 753 758 771 736 755 753 752 754 749 757 766 775 777 780 783 788 787 789 795 794 795
735 726 718 718 721 725 724 729 726 722 709 703 713 721 712 699 696 723 728 728 729 729 742 755 759 760 762 777 753 747 747 753 753 763 775 777 777 781 783 790 791 794 794 798
733 721 717 718 718 716 731 710 713 713 716 739 705 743 715 706 705 723 733 733 732 735 737 748 757 756 755 755 751 753 743 750 762 765 770 771 773 778 784 789 792 792 797 800
728 721 718 716 713 710 717 706 711 712 722 727 717 739 717 700 709 715 725 722 724 725 726 733 743 757 751 769 757 727 747 745 762 764 767 770 776 779 782 789 794 797 800 802
723 708 711 714 706 705 704 711 715 713 727 748 727 722 718 715 703 716 720 719 717 723 725 733 737 747 748 750 744 742 726 754 757 760 767 766 771 776 783 788 796 798 800 802
722 714 709 708 718 709 711 730 763 759 758 763 729 737 721 696 689 699 712 720 718 721 724 723 727 727 736 729 751 754 754 753 755 759 763 765 769 777 784 785 791 795 800 805
722 726 711 704 713 712 708 735 765 764 761 748 728 734 720 688 682 682 694 702 712 720 721 718 711 707 728 726 737 737 742 748 757 761 765 773 773 782 787 786 790 794 801 806
710 705 686 688 690 698 713 729 726 742 734 743 731 720 705 692 688 690 692 701 708 714 716 716 711 713 720 728 736 738 749 757 762 767 773 775 778 788 786 788 791 797 802 806
707 707 685 686 689 693 703 696 740 747 760 747 734 723 720 698 686 683 698 704 704 708 709 713 717 714 720 727 737 740 752 759 764 766 772 775 784 790 790 789 792 796 804 808
706 705 698 690 700 705 706 709 718 719 725 740 737 717 682 689 681 685 684 688 697 701 708 706 711 714 718 723 732 737 750 759 763 769 776 782 789 791 788 790 796 799 805 810
694 708 712 703 686 684 693 704 707 741 729 723 732 731 679 673 669 673 679 678 683 684 695 708 712 709 719 730 737 746 756 761 766 773 779 784 785 788 791 796 801 805 808 809
691 710 723 710 701 690 698 696 700 725 735 735 743 727 675 665 669 669 677 678 681 692 702 720 713 716 721 726 739 747 756 761 766 772 777 781 786 793 798 803 805 807 809 809
692 704 709 723 709 701 706 696 697 713 742 744 737 721 689 685 679 683 696 704 708 713 722 722 712 719 728 736 745 751 756 763 769 773 779 785 793 800 804 805 807 809 811 809
691 704 697 692 688 689 690 687 687 705 725 743 728 731 700 704 691 701 705 705 710 718 722 728 733 736 738 745 750 759 769 773 777 780 785 792 798 802 805 807 810 810 809 807
692 708 702 694 684 686 685 682 680 696 715 729 732 720 708 709 703 712 717 720 727 729 736 742 745 750 754 759 763 764 770 780 786 790 791 794 798 805 808 811 809 807 809 807
708 708 716 712 686 684 698 687 683 678 703 715 738 728 718 720 719 730 733 728 735 744 749 751 755 760 766 770 773 777 780 779 790 791 791 797 801 807 810 810 807 808 809 806
712 714 725 722 705 722 681 667 668 674 691 711 721 719 723 729 732 733 749 752 753 754 758 762 769 770 771 778 780 780 781 785 792 796 796 801 803 806 808 807 808 810 809 806
702 720 732 732 726 693 675 677 695 688 722 703 711 720 727 732 740 758 762 765 767 764 767 770 773 777 781 784 786 785 785 790 793 796 800 805 806 809 810 810 811 809 808 807
701 711 728 740 734 718 690 679 684 680 729 720 710 715 719 725 744 764 770 771 772 773 776 778 782 786 788 793 792 792 796 799 799 802 806 808 811 810 809 809 809 808 807 803
722 730 733 736 741 723 690 684 676 704 722 712 710 708 717 722 730 755 767 774 776 781 783 785 786 787 792 796 797 801 804 803 806 805 806 809 810 810 808 808 807 806 803 802
702 712 718 715 739 735 679 676 693 700 700 699 706 709 725 734 744 754 766 775 780 783 788 789 792 794 795 798 800 807 808 810 809 807 808 812 810 809 808 807 807 805 805 804
704 707 709 687 698 686 675 680 687 690 690 705 709 716 720 733 747 757 764 773 779 784 788 793 795 798 801 805 808 812 812 811 812 810 811 812 812 811 810 809 808 807 806 805
706 699 695 693 690 681 672 684 691 696 696 701 711 715 725 737 751 758 765 771 778 784 790 793 798 802 807 811 811 812 814 813 812 813 813 814 814 814 812 811 810 810 809 809
712 707 706 698 694 690 681 679 675 693 696 701 711 722 731 739 750 756 764 771 778 785 790 795 802 807 811 812 814 816 816 815 814 816 818 817 817 816 815 814 814 814 813 812
703 709 709 702 700 705 703 681 682 691 699 705 714 728 737 741 748 757 767 775 781 788 794 799 806 808 811 815 817 818 818 818 821 821 818 819 819 818 817 817 816 817 815 814